Location: *
(41.3833°S, 177.8333°W)
Time: 03:44:13
(UTC+00:00)

STARLINK-1197 - Pass Details

Date: 01 April 2020
Orbit: 548 x 550 km, 53.0° (Epoch: 31 May)

Event Time Altitude Azimuth Distance (km) Brightness Sun altitude
Exits shadow 17:41:10 - 271° (W) 2,067 5.8 -5.8°
Reaches altitude 10° 17:41:48 10° 267° (W) 1,842 5.6 -5.7°
Maximum altitude 17:45:31 30° 204° (SSW) 1,021 4.8 -5.0°
Drops below altitude 10° 17:49:15 10° 142° (SE) 1,853 6.9 -4.3°
Sets 17:51:43 0° 130° (SE) 2,752 8.0 -3.9°
